SNUSAT-1B (42733 NORAD) Tracking and Keplerian Element Data

This shows tracking and keplerian element data for the satellite.

Feedback or suggestion? Click here.




ElementValue
Catalog42733
NameSNUSAT-1B
Epoch Orbit8375
Epoch Day316.49140438
Epoch Year2018
RAAN314.9825
Inclination51.6291
Eccentricity0.0006864
Argument of Perigee45.4736
Mean Anonmoly314.6826
Mean Motion15.80733112
Decay Rate0.00059589
L11 42733U 98067MN 18316.49140438 .00059589 00000-0 30436-3 0 9996
L22 42733 51.6291 314.9825 0006864 45.4736 314.6826 15.80733112 83754

Live tracking and technical data element details for SNUSAT-1B (NORAD 42733). SNUSAT-1B can be tracked NOW for your location showing map with azimuth and elevation plus other details from your city location.

Track the satellite on the map from your city or location and see movement details for azimuth, elevation, latitude, longitude, range, height, and movement on the map or in text.







IsCatalogInMostPopularTable: catalog: 42733, numindb: 152
Update: records affected: 1



GetName: 42733 SNUSAT-1B

Hit Count: updated at: Mon, 12 Nov 2018 18:37:34 GMT